TimeCDT,TemperatureF,Dew PointF,Humidity,Sea Level PressureIn,VisibilityMPH,Wind Direction,Wind SpeedMPH,Gust SpeedMPH,PrecipitationIn,Events,Conditions,WindDirDegrees,DateUTC
1:15 AM,65.3,50.5,59,29.96,10.0,Calm,Calm,-,N/A,,Scattered Clouds,0,2012-10-19 06:15:00
1:35 AM,63.9,51.3,64,29.96,10.0,Calm,Calm,-,N/A,,Clear,0,2012-10-19 06:35:00
1:55 AM,63.5,51.8,66,29.97,10.0,North,3.5,-,N/A,,Clear,350,2012-10-19 06:55:00
2:15 AM,62.6,51.4,67,29.97,10.0,North,3.5,-,N/A,,Clear,360,2012-10-19 07:15:00
2:35 AM,62.2,51.6,68,29.97,10.0,NNW,3.5,-,N/A,,Clear,340,2012-10-19 07:35:00
2:55 AM,61.5,51.1,69,29.97,10.0,North,3.5,-,N/A,,Clear,350,2012-10-19 07:55:00
3:15 AM,60.1,50.9,72,29.97,10.0,Calm,Calm,-,N/A,,Clear,0,2012-10-19 08:15:00
3:55 AM,56.5,48.0,73,29.97,10.0,Calm,Calm,-,N/A,,Clear,0,2012-10-19 08:55:00
4:15 AM,55.6,47.8,75,29.96,10.0,Calm,Calm,-,N/A,,Clear,0,2012-10-19 09:15:00
4:55 AM,52.3,46.6,81,29.96,10.0,Calm,Calm,-,N/A,,Clear,0,2012-10-19 09:55:00
5:15 AM,53.1,49.5,88,29.97,10.0,Calm,Calm,-,N/A,,Clear,0,2012-10-19 10:15:00
5:35 AM,52.2,49.5,91,29.98,10.0,Calm,Calm,-,N/A,,Clear,0,2012-10-19 10:35:00
5:55 AM,51.8,49.1,90,29.98,10.0,Calm,Calm,-,N/A,,Clear,0,2012-10-19 10:55:00
6:15 AM,51.4,49.1,92,29.98,10.0,Calm,Calm,-,N/A,,Clear,0,2012-10-19 11:15:00
6:35 AM,51.1,48.6,91,29.98,10.0,Calm,Calm,-,N/A,,Clear,0,2012-10-19 11:35:00
6:55 AM,51.6,49.3,92,29.98,10.0,Calm,Calm,-,N/A,,Clear,0,2012-10-19 11:55:00
7:15 AM,50.4,47.5,90,29.99,10.0,Calm,Calm,-,N/A,,Clear,0,2012-10-19 12:15:00
7:35 AM,49.6,46.2,88,29.99,10.0,Calm,Calm,-,N/A,,Clear,0,2012-10-19 12:35:00
7:55 AM,50.9,48.6,92,30.00,10.0,Calm,Calm,-,N/A,,Clear,0,2012-10-19 12:55:00
8:15 AM,55.0,52.0,89,30.01,10.0,Calm,Calm,-,N/A,,Clear,0,2012-10-19 13:15:00
8:35 AM,59.4,52.9,79,30.01,10.0,Calm,Calm,-,N/A,,Clear,0,2012-10-19 13:35:00
8:55 AM,63.1,51.1,65,30.02,10.0,Calm,Calm,-,N/A,,Clear,0,2012-10-19 13:55:00
9:15 AM,67.3,50.5,55,30.03,10.0,Calm,Calm,-,N/A,,Clear,0,2012-10-19 14:15:00
9:35 AM,69.8,47.3,45,30.04,10.0,NNE,3.5,-,N/A,,Clear,20,2012-10-19 14:35:00
9:55 AM,72.3,44.6,37,30.04,10.0,NNE,3.5,-,N/A,,Clear,30,2012-10-19 14:55:00
10:15 AM,75.0,43.2,32,30.04,10.0,Calm,Calm,-,N/A,,Clear,0,2012-10-19 15:15:00
10:55 AM,79.2,41.4,26,30.03,10.0,Calm,Calm,-,N/A,,Clear,0,2012-10-19 15:55:00
11:15 AM,80.2,40.3,24,30.03,10.0,NNW,5.8,-,N/A,,Clear,340,2012-10-19 16:15:00
11:35 AM,81.7,39.9,23,30.03,10.0,NNW,5.8,-,N/A,,Clear,340,2012-10-19 16:35:00
11:55 AM,82.0,33.6,17,30.03,10.0,NNE,4.6,-,N/A,,Clear,30,2012-10-19 16:55:00
12:35 PM,84.2,33.8,16,30.02,10.0,North,3.5,-,N/A,,Clear,350,2012-10-19 17:35:00
12:55 PM,84.6,34.9,17,30.01,10.0,NW,3.5,-,N/A,,Clear,320,2012-10-19 17:55:00
1:15 PM,85.6,34.7,16,30.00,10.0,NW,6.9,-,N/A,,Clear,320,2012-10-19 18:15:00
1:35 PM,86.7,33.3,15,29.98,10.0,NW,5.8,-,N/A,,Clear,310,2012-10-19 18:35:00
2:15 PM,86.0,30.0,13,29.97,10.0,ENE,4.6,-,N/A,,Clear,60,2012-10-19 19:15:00
2:35 PM,86.2,31.8,14,29.96,10.0,NW,6.9,-,N/A,,Clear,310,2012-10-19 19:35:00
2:55 PM,86.0,31.1,14,29.96,10.0,NNE,4.6,-,N/A,,Clear,20,2012-10-19 19:55:00
3:15 PM,86.2,31.3,14,29.95,10.0,NW,6.9,-,N/A,,Clear,320,2012-10-19 20:15:00
3:35 PM,86.0,32.2,14,29.95,10.0,NW,4.6,-,N/A,,Clear,320,2012-10-19 20:35:00
4:15 PM,85.3,31.1,14,29.94,10.0,WNW,5.8,-,N/A,,Clear,290,2012-10-19 21:15:00
4:35 PM,86.7,31.5,14,29.94,10.0,North,3.5,-,N/A,,Clear,350,2012-10-19 21:35:00
4:55 PM,85.1,31.3,14,29.94,10.0,NNE,3.5,-,N/A,,Clear,20,2012-10-19 21:55:00
5:15 PM,85.5,32.7,15,29.93,10.0,West,3.5,-,N/A,,Clear,280,2012-10-19 22:15:00
5:55 PM,84.0,34.3,17,29.93,10.0,Calm,Calm,-,N/A,,Clear,0,2012-10-19 22:55:00
6:15 PM,82.0,34.9,18,29.93,10.0,Calm,Calm,-,N/A,,Clear,0,2012-10-19 23:15:00
6:55 PM,71.6,41.7,34,29.93,10.0,Calm,Calm,-,N/A,,Clear,0,2012-10-19 23:55:00
7:15 PM,66.2,35.8,32,29.94,10.0,Calm,Calm,-,N/A,,Clear,0,2012-10-20 00:15:00
7:55 PM,61.0,39.2,45,29.95,10.0,Calm,Calm,-,N/A,,Clear,0,2012-10-20 00:55:00
8:15 PM,61.0,48.2,63,29.95,10.0,South,3.5,-,N/A,,Clear,180,2012-10-20 01:15:00
8:35 PM,61.2,46.0,58,29.96,10.0,Calm,Calm,-,N/A,,Clear,0,2012-10-20 01:35:00
9:15 PM,57.7,42.1,56,29.96,10.0,Calm,Calm,-,N/A,,Clear,0,2012-10-20 02:15:00
9:35 PM,57.0,43.2,60,29.96,10.0,Calm,Calm,-,N/A,,Clear,0,2012-10-20 02:35:00
9:55 PM,55.6,42.4,61,29.96,10.0,Calm,Calm,-,N/A,,Clear,0,2012-10-20 02:55:00
10:15 PM,54.5,43.3,66,29.96,10.0,Calm,Calm,-,N/A,,Clear,0,2012-10-20 03:15:00
10:35 PM,53.8,46.2,76,29.95,7.0,Calm,Calm,-,N/A,,Clear,0,2012-10-20 03:35:00
10:55 PM,53.6,45.1,73,29.95,10.0,Calm,Calm,-,N/A,,Clear,0,2012-10-20 03:55:00
11:15 PM,53.1,42.6,68,29.95,10.0,Calm,Calm,-,N/A,,Clear,0,2012-10-20 04:15:00
11:35 PM,53.4,41.9,65,29.95,10.0,Calm,Calm,-,N/A,,Clear,0,2012-10-20 04:35:00
11:55 PM,53.8,44.8,72,29.95,10.0,Calm,Calm,-,N/A,,Clear,0,2012-10-20 04:55:00